TimeCDT,TemperatureF,Dew PointF,Humidity,Sea Level PressureIn,VisibilityMPH,Wind Direction,Wind SpeedMPH,Gust SpeedMPH,PrecipitationIn,Events,Conditions,WindDirDegrees,DateUTC
12:54 AM,79.0,72.0,79,29.91,10.0,South,9.2,-,N/A,,Scattered Clouds,190,2013-08-07 05:54:00
1:54 AM,79.0,73.0,82,29.90,10.0,SSW,6.9,-,N/A,,Scattered Clouds,200,2013-08-07 06:54:00
2:54 AM,79.0,73.0,82,29.87,10.0,SSW,10.4,-,N/A,,Scattered Clouds,200,2013-08-07 07:54:00
3:54 AM,79.0,72.0,79,29.86,10.0,SSW,9.2,-,N/A,,Scattered Clouds,210,2013-08-07 08:54:00
4:54 AM,78.1,72.0,81,29.87,10.0,South,8.1,-,N/A,,Scattered Clouds,190,2013-08-07 09:54:00
5:54 AM,78.1,72.0,81,29.89,10.0,South,6.9,-,N/A,,Mostly Cloudy,190,2013-08-07 10:54:00
6:54 AM,78.1,72.0,81,29.90,10.0,South,3.5,-,N/A,,Mostly Cloudy,190,2013-08-07 11:54:00
7:54 AM,81.0,73.0,77,29.92,10.0,SSW,4.6,-,N/A,,Overcast,200,2013-08-07 12:54:00
8:54 AM,84.0,73.9,72,29.94,10.0,SSW,6.9,-,N/A,,Overcast,200,2013-08-07 13:54:00
9:54 AM,84.2,75.2,74,29.93,10.0,SW,3.5,-,N/A,,Overcast,220,2013-08-07 14:54:00
10:54 AM,84.9,75.0,72,29.94,10.0,NNW,12.7,18.4,N/A,,Overcast,340,2013-08-07 15:54:00
11:15 AM,84.2,75.2,74,29.97,10.0,North,10.4,-,N/A,,Overcast,350,2013-08-07 16:15:00
11:54 AM,84.9,73.9,69,29.96,10.0,North,9.2,-,N/A,,Overcast,10,2013-08-07 16:54:00
12:12 PM,86.0,73.4,66,29.97,10.0,NNE,8.1,-,N/A,,Overcast,20,2013-08-07 17:12:00
12:54 PM,88.0,73.0,61,29.95,10.0,ENE,11.5,-,N/A,,Overcast,60,2013-08-07 17:54:00
1:54 PM,91.0,66.9,45,29.92,10.0,NE,9.2,-,N/A,,Mostly Cloudy,50,2013-08-07 18:54:00
2:54 PM,91.0,66.9,45,29.90,10.0,East,6.9,-,N/A,,Mostly Cloudy,80,2013-08-07 19:54:00
3:54 PM,91.0,69.1,48,29.88,10.0,SSE,6.9,-,N/A,,Mostly Cloudy,150,2013-08-07 20:54:00
4:54 PM,91.0,70.0,50,29.86,10.0,South,5.8,-,N/A,,Mostly Cloudy,170,2013-08-07 21:54:00
5:54 PM,90.0,73.0,57,29.86,10.0,South,9.2,-,N/A,,Mostly Cloudy,170,2013-08-07 22:54:00
6:54 PM,89.1,75.9,65,29.86,10.0,SSW,6.9,-,N/A,,Mostly Cloudy,210,2013-08-07 23:54:00
7:54 PM,87.1,73.9,65,29.86,10.0,SW,3.5,-,N/A,,Mostly Cloudy,230,2013-08-08 00:54:00
8:54 PM,84.9,75.0,72,29.89,10.0,NNW,3.5,-,N/A,,Partly Cloudy,340,2013-08-08 01:54:00
9:54 PM,84.9,75.0,72,29.91,10.0,East,3.5,-,N/A,,Clear,90,2013-08-08 02:54:00
10:54 PM,86.0,75.9,72,29.92,10.0,SSE,4.6,-,N/A,,Scattered Clouds,150,2013-08-08 03:54:00
11:54 PM,84.0,77.0,79,29.91,10.0,South,5.8,-,N/A,,Mostly Cloudy,170,2013-08-08 04:54:00